• In Portugal
  • List of Countries
  • For 7 days
  • Water Temperature
  • Satellite Maps
  • Weather Map
  • Weather Widgets
  • user-avatar
    Login

    Hourly Weather Katmandu

    Today, 17 December, Sunday

    Time Temperature Precipitation Wind Pressure Humidity
    00:00 +10°C° 0 mm 2 mps 654 mmHg 19%
    01:00 +10°C° 0 mm 2 mps 654 mmHg 17%
    02:00 +10°C° 0 mm 2 mps 654 mmHg 16%
    03:00 +10°C° 0 mm 2 mps 654 mmHg 14%
    04:00 +10°C° 0 mm 2 mps 654 mmHg 13%
    05:00 +10°C° 0 mm 2 mps 654 mmHg 12%
    06:00 +10°C° 0 mm 3 mps 654 mmHg 11%
    07:00 +13°C° 0 mm 2 mps 655 mmHg 12%
    08:00 +15°C° 0 mm 1 mps 656 mmHg 13%
    09:00 +18°C° 0 mm 1 mps 656 mmHg 14%
    10:00 +20°C° 0 mm 1 mps 657 mmHg 14%
    11:00 +21°C° 0 mm 1 mps 657 mmHg 13%
    12:00 +23°C° 0 mm 2 mps 657 mmHg 14%
    13:00 +21°C° 0 mm 2 mps 657 mmHg 16%
    14:00 +21°C° 0 mm 2 mps 656 mmHg 17%
    15:00 +21°C° 0 mm 2 mps 655 mmHg 19%
    16:00 +18°C° 0 mm 2 mps 655 mmHg 27%
    17:00 +15°C° 0 mm 1 mps 654 mmHg 35%
    18:00 +12°C° 0 mm 1 mps 653 mmHg 42%
    19:00 +11°C° 0 mm 1 mps 653 mmHg 40%
    20:00 +10°C° 0 mm 2 mps 653 mmHg 37%
    21:00 +10°C° 0 mm 2 mps 654 mmHg 34%
    22:00 +10°C° 0 mm 2 mps 654 mmHg 32%
    23:00 +10°C° 0 mm 2 mps 654 mmHg 30%

    Tomorrow, 18 December, Monday

    Time Temperature Precipitation Wind Pressure Humidity
    00:00 +9°C° 0 mm 2 mps 654 mmHg 28%
    01:00 +9°C° 0 mm 2 mps 653 mmHg 27%
    02:00 +9°C° 0 mm 2 mps 653 mmHg 25%
    03:00 +9°C° 0 mm 2 mps 653 mmHg 23%
    04:00 +9°C° 0 mm 2 mps 653 mmHg 22%
    05:00 +9°C° 0 mm 2 mps 653 mmHg 22%
    06:00 +9°C° 0 mm 2 mps 653 mmHg 21%
    07:00 +12°C° 0 mm 1 mps 654 mmHg 21%
    08:00 +14°C° 0 mm 1 mps 655 mmHg 20%
    09:00 +15°C° 0 mm 0 mps 656 mmHg 20%
    10:00 +19°C° 0 mm 1 mps 657 mmHg 19%
    11:00 +21°C° 0 mm 1 mps 657 mmHg 18%
    12:00 +21°C° 0 mm 2 mps 657 mmHg 18%
    13:00 +21°C° 0 mm 2 mps 657 mmHg 20%
    14:00 +21°C° 0 mm 2 mps 656 mmHg 22%
    15:00 +21°C° 0 mm 2 mps 655 mmHg 23%
    16:00 +18°C° 0 mm 2 mps 654 mmHg 32%
    17:00 +15°C° 0 mm 1 mps 654 mmHg 41%
    18:00 +12°C° 0 mm 1 mps 653 mmHg 50%
    19:00 +12°C° 0 mm 1 mps 653 mmHg 50%
    20:00 +12°C° 0 mm 1 mps 654 mmHg 49%
    21:00 +11°C° 0 mm 1 mps 654 mmHg 49%
    22:00 +10°C° 0 mm 2 mps 654 mmHg 46%
    23:00 +10°C° 0 mm 2 mps 654 mmHg 44%

    Day after tomorrow, 19 December, Tuesday

    Time Temperature Precipitation Wind Pressure Humidity
    00:00 +10°C° 0 mm 2 mps 654 mmHg 42%
    01:00 +12°C° 0 mm 2 mps 654 mmHg 40%
    02:00 +12°C° 0 mm 2 mps 654 mmHg 38%
    03:00 +12°C° 0 mm 2 mps 653 mmHg 36%
    04:00 +12°C° 0 mm 2 mps 653 mmHg 35%
    05:00 +12°C° 0 mm 2 mps 653 mmHg 34%
    06:00 +12°C° 0 mm 1 mps 653 mmHg 33%
    07:00 +14°C° 0 mm 1 mps 654 mmHg 31%
    08:00 +15°C° 0 mm 1 mps 656 mmHg 29%
    09:00 +18°C° 0 mm 1 mps 657 mmHg 28%
    10:00 +20°C° 0 mm 1 mps 657 mmHg 26%
    11:00 +20°C° 0 mm 2 mps 657 mmHg 25%
    12:00 +23°C° 0 mm 2 mps 657 mmHg 23%
    13:00 +21°C° 0 mm 2 mps 657 mmHg 25%
    14:00 +21°C° 0 mm 2 mps 656 mmHg 27%
    15:00 +21°C° 0 mm 2 mps 656 mmHg 28%
    16:00 +18°C° 0 mm 2 mps 655 mmHg 36%
    17:00 +16°C° 0 mm 1 mps 654 mmHg 44%
    18:00 +13°C° 0 mm 1 mps 654 mmHg 52%
    19:00 +13°C° 0 mm 1 mps 654 mmHg 50%
    20:00 +13°C° 0 mm 1 mps 655 mmHg 49%
    21:00 +13°C° 0 mm 1 mps 655 mmHg 47%
    22:00 +13°C° 0 mm 1 mps 655 mmHg 46%
    23:00 +13°C° 0 mm 1 mps 655 mmHg 45%

    20 December, Wednesday

    Time Temperature Precipitation Wind Pressure Humidity
    00:00 +13°C° 0 mm 1 mps 655 mmHg 44%
    01:00 +13°C° 0 mm 1 mps 654 mmHg 43%
    02:00 +12°C° 0 mm 1 mps 654 mmHg 43%
    03:00 +12°C° 0 mm 1 mps 654 mmHg 43%
    04:00 +12°C° 0 mm 1 mps 654 mmHg 42%
    05:00 +12°C° 0 mm 1 mps 654 mmHg 41%
    06:00 +12°C° 0 mm 2 mps 654 mmHg 40%
    07:00 +14°C° 0 mm 1 mps 655 mmHg 38%
    08:00 +15°C° 0 mm 1 mps 656 mmHg 35%
    09:00 +18°C° 0 mm 1 mps 658 mmHg 33%
    10:00 +20°C° 0 mm 1 mps 658 mmHg 31%
    11:00 +21°C° 0 mm 1 mps 658 mmHg 29%
    12:00 +23°C° 0 mm 2 mps 658 mmHg 27%
    13:00 +23°C° 0 mm 2 mps 658 mmHg 28%
    14:00 +21°C° 0 mm 2 mps 657 mmHg 30%
    15:00 +21°C° 0 mm 2 mps 656 mmHg 31%
    16:00 +19°C° 0 mm 2 mps 656 mmHg 40%
    17:00 +16°C° 0 mm 1 mps 655 mmHg 48%
    18:00 +14°C° 0 mm 1 mps 654 mmHg 57%
    19:00 +13°C° 0 mm 1 mps 655 mmHg 56%
    20:00 +13°C° 0 mm 1 mps 655 mmHg 55%
    21:00 +13°C° 0 mm 1 mps 656 mmHg 54%
    22:00 +13°C° 0 mm 2 mps 656 mmHg 52%
    23:00 +13°C° 0 mm 2 mps 656 mmHg 49%

    21 December, Thursday

    Time Temperature Precipitation Wind Pressure Humidity
    00:00 +13°C° 0 mm 2 mps 656 mmHg 46%
    01:00 +13°C° 0 mm 2 mps 655 mmHg 45%
    02:00 +13°C° 0 mm 2 mps 655 mmHg 43%
    03:00 +13°C° 0 mm 2 mps 654 mmHg 41%
    04:00 +13°C° 0 mm 2 mps 654 mmHg 40%
    05:00 +13°C° 0 mm 2 mps 654 mmHg 39%
    06:00 +13°C° 0 mm 1 mps 655 mmHg 38%
    07:00 +14°C° 0 mm 1 mps 656 mmHg 36%
    08:00 +16°C° 0 mm 1 mps 657 mmHg 34%
    09:00 +17°C° 0 mm 0 mps 658 mmHg 32%
    10:00 +20°C° 0 mm 1 mps 658 mmHg 30%
    11:00 +22°C° 0 mm 1 mps 658 mmHg 28%
    12:00 +23°C° 0 mm 2 mps 658 mmHg 26%
    13:00 +23°C° 0 mm 2 mps 657 mmHg 27%
    14:00 +23°C° 0 mm 2 mps 656 mmHg 27%
    15:00 +23°C° 0 mm 2 mps 655 mmHg 28%
    16:00 +19°C° 0 mm 2 mps 655 mmHg 37%
    17:00 +16°C° 0 mm 1 mps 654 mmHg 45%
    18:00 +14°C° 0 mm 1 mps 653 mmHg 53%
    19:00 +13°C° 0 mm 1 mps 654 mmHg 51%
    20:00 +13°C° 0 mm 2 mps 654 mmHg 48%
    21:00 +13°C° 0 mm 2 mps 654 mmHg 46%
    22:00 +13°C° 0 mm 2 mps 654 mmHg 42%
    23:00 +13°C° 0 mm 2 mps 654 mmHg 39%

    22 December, Friday

    Time Temperature Precipitation Wind Pressure Humidity
    00:00 +13°C° 0 mm 2 mps 654 mmHg 35%
    01:00 +13°C° 0 mm 2 mps 653 mmHg 32%
    02:00 +13°C° 0 mm 2 mps 653 mmHg 29%
    03:00 +13°C° 0 mm 2 mps 653 mmHg 26%
    04:00 +13°C° 0 mm 2 mps 653 mmHg 25%
    05:00 +13°C° 0 mm 2 mps 653 mmHg 23%
    06:00 +13°C° 0 mm 2 mps 653 mmHg 22%
    07:00 +15°C° 0 mm 1 mps 654 mmHg 22%
    08:00 +16°C° 0 mm 1 mps 655 mmHg 22%
    09:00 +19°C° 0 mm 1 mps 656 mmHg 22%
    10:00 +20°C° 0 mm 1 mps 656 mmHg 21%
    11:00 +22°C° 0 mm 1 mps 656 mmHg 20%
    12:00 +23°C° 0 mm 2 mps 656 mmHg 20%
    13:00 +23°C° 0 mm 2 mps 655 mmHg 21%
    14:00 +23°C° 0 mm 2 mps 654 mmHg 22%
    15:00 +21°C° 0 mm 2 mps 653 mmHg 24%
    16:00 +19°C° 0 mm 2 mps 653 mmHg 31%
    17:00 +16°C° 0 mm 1 mps 652 mmHg 38%
    18:00 +14°C° 0 mm 1 mps 652 mmHg 46%
    19:00 +14°C° 0 mm 1 mps 652 mmHg 44%
    20:00 +13°C° 0 mm 1 mps 652 mmHg 43%
    21:00 +13°C° 0 mm 2 mps 653 mmHg 41%
    22:00 +13°C° 0 mm 2 mps 652 mmHg 39%
    23:00 +13°C° 0 mm 2 mps 652 mmHg 36%
    Show more